Regional Weather Roundup
Issued by NWS Charleston, WV

Home | Current Version | Previous Version | Graphics & Text | Print | Product List | Glossary On
Versions: 1 2 3 4 5 6 7 8 9 10 11 12 13 14 15 16 17 18 19 20 21 22 23 24 25 26 27 28 29 30 31 32 33 34 35 36 37 38 39 40 41 42 43 44 45 46 47
000
ASUS41 KRLX 292010
RWRRLX
West Virginia Regional Weather Roundup
National Weather Service Charleston WV
400 PM EDT SAT AUG 29 2015

Note: "fair" indicates few or no clouds below 12,000 feet with no
significant weather and/or obstructions to visibility.

WVZ003-292100-
Northern Panhandle of West Virginia

CITY           SKY/WX    TMP DP  RH WIND       PRES   REMARKS
WHEELING       PTSUNNY   84  62  47 N6        30.13F
$$

WVZ009-292100-
Northwest West Virginia

CITY           SKY/WX    TMP DP  RH WIND       PRES   REMARKS
PARKERSBURG    PTSUNNY   82  63  52 SW6       30.14F
$$

WVZ006-292100-
Western West Virginia

CITY           SKY/WX    TMP DP  RH WIND       PRES   REMARKS
HUNTINGTON     MOSUNNY   86  63  45 S8        30.11F
$$

WVZ015-292100-
West Central West Virginia

CITY           SKY/WX    TMP DP  RH WIND       PRES   REMARKS
CHARLESTON     MOSUNNY   85  67  54 CALM      30.13F
$$

WVZ022-031-292100-
North Central West Virginia

CITY           SKY/WX    TMP DP  RH WIND       PRES   REMARKS
CLARKSBURG     SUNNY     87  58  37 SW8       30.14F
MORGANTOWN     SUNNY     89  55  31 W6        30.14F
$$

WVZ025-035-042-045-292100-
Southern West Virginia

CITY           SKY/WX    TMP DP  RH WIND       PRES   REMARKS
BECKLEY        PTSUNNY   78  58  49 NW5       30.23F
LOGAN            N/A     81  63  54 CALM      30.18F
BLUEFIELD      CLOUDY    76  61  59 VRB3      30.26F
LEWISBURG      PTSUNNY   80  55  41 W3        30.22F
$$

WVZ047-292100-
Northern Mountains of West Virginia

CITY           SKY/WX    TMP DP  RH WIND       PRES   REMARKS
ELKINS         MOSUNNY   83  56  39 W8        30.19F
$$

WVZ052-292100-
Eastern Panhandle of West Virginia

CITY           SKY/WX    TMP DP  RH WIND       PRES   REMARKS
MARTINSBURG    SUNNY     88  57  34 W5        30.12F
PETERSBURG     SUNNY     88  57  34 SE5       30.12F
$$



USA.gov is the U.S. government's official web portal to all federal, state and local government web resources and services.